Orbital Elements at Epoch 2459200.5 (2020-Dec-17.0) TDB
Reference: JPL 21 (heliocentric ecliptic J2000)
Element | Value | Uncertainty (1-sigma) | Units |
e | .21626487085424 | 3.9254e-08 | |
a | 2.328746243561711 | 1.0473e-08 | au |
q | 1.825120237945541 | 9.2057e-08 | au |
i | 6.390805617682484 | 4.5368e-06 | deg |
node | .6170695695066859 | 3.0108e-05 | deg |
peri | 309.0712139030432 | 3.1367e-05 | deg |
M | 291.9595212325534 | 9.9147e-06 | deg |
tp | 2459445.827672180800 (2021-Aug-19.32767218) | 3.6717e-05 | TDB |
period | 1298.02087793866 3.55 | 8.7565e-06 2.397e-08 | d yr |
n | .2773453078595338 | 1.871e-09 | deg/d |
Q | 2.83237224917788 | 1.2738e-08 | au |
|
| | Orbit Determination Parameters
Additional Information
|